When you browse on this site, cookies collect data to enhance your experience and personalize the content and advertising you see.
Visit our Privacy Policy to learn more. By continuing to use the site, you agree to this use of cookies and data.
  • In Romania
  • List of Countries
  • For 7 days
  • Water Temperature
  • Weather Map
  • Weather Widgets
  • user-avatar
    Login

    Hourly Weather Bobo-Dioulasso

    Today, 20 September, Friday

    Time Temperature Precipitation Wind Pressure Humidity
    00:00 +25°C° 0 mm 1 mps 723 mmHg 90%
    01:00 +25°C° 0.8 mm 1 mps 722 mmHg 91%
    02:00 +24°C° 0.8 mm 1 mps 722 mmHg 92%
    03:00 +24°C° 0.8 mm 1 mps 721 mmHg 93%
    04:00 +24°C° 0.1 mm 1 mps 722 mmHg 92%
    05:00 +24°C° 0.1 mm 1 mps 722 mmHg 91%
    06:00 +24°C° 0.1 mm 1 mps 723 mmHg 90%
    07:00 +25°C° 0 mm 2 mps 723 mmHg 88%
    08:00 +26°C° 0 mm 2 mps 724 mmHg 86%
    09:00 +27°C° 0 mm 3 mps 724 mmHg 84%
    10:00 +27°C° 0.2 mm 2 mps 724 mmHg 83%
    11:00 +27°C° 0.2 mm 2 mps 724 mmHg 82%
    12:00 +28°C° 0.2 mm 2 mps 723 mmHg 81%
    13:00 +29°C° 0 mm 2 mps 723 mmHg 77%
    14:00 +29°C° 0 mm 3 mps 722 mmHg 74%
    15:00 +30°C° 0 mm 3 mps 721 mmHg 71%
    16:00 +29°C° 0.1 mm 2 mps 721 mmHg 76%
    17:00 +28°C° 0.1 mm 2 mps 722 mmHg 81%
    18:00 +27°C° 0.1 mm 2 mps 722 mmHg 86%
    19:00 +26°C° 0 mm 1 mps 722 mmHg 88%
    20:00 +26°C° 0 mm 1 mps 723 mmHg 89%
    21:00 +23°C° 0 mm 0 mps 723 mmHg 90%
    22:00 +23°C° 0 mm 0 mps 723 mmHg 89%
    23:00 +23°C° 0 mm 0 mps 723 mmHg 89%

    Tomorrow, 21 September, Saturday

    Time Temperature Precipitation Wind Pressure Humidity
    00:00 +23°C° 0 mm 0 mps 723 mmHg 88%
    01:00 +23°C° 0.5 mm 0 mps 723 mmHg 90%
    02:00 +22°C° 0.5 mm 0 mps 723 mmHg 92%
    03:00 +22°C° 0.5 mm 0 mps 722 mmHg 93%
    04:00 +24°C° 0.1 mm 1 mps 723 mmHg 94%
    05:00 +24°C° 0.1 mm 1 mps 723 mmHg 96%
    06:00 +24°C° 0.1 mm 1 mps 724 mmHg 97%
    07:00 +25°C° 0 mm 1 mps 724 mmHg 92%
    08:00 +26°C° 0 mm 2 mps 724 mmHg 87%
    09:00 +27°C° 0 mm 2 mps 725 mmHg 83%
    10:00 +29°C° 0 mm 2 mps 725 mmHg 77%
    11:00 +30°C° 0 mm 2 mps 724 mmHg 71%
    12:00 +31°C° 0 mm 2 mps 724 mmHg 65%
    13:00 +32°C° 0 mm 1 mps 723 mmHg 63%
    14:00 +32°C° 0 mm 1 mps 722 mmHg 60%
    15:00 +32°C° 0 mm 1 mps 722 mmHg 58%
    16:00 +31°C° 0 mm 1 mps 722 mmHg 63%
    17:00 +30°C° 0 mm 1 mps 722 mmHg 69%
    18:00 +29°C° 0 mm 1 mps 721 mmHg 75%
    19:00 +28°C° 0 mm 1 mps 722 mmHg 77%
    20:00 +27°C° 0 mm 1 mps 722 mmHg 79%
    21:00 +27°C° 0 mm 1 mps 723 mmHg 81%
    22:00 +26°C° 0 mm 1 mps 723 mmHg 82%
    23:00 +26°C° 0 mm 1 mps 723 mmHg 82%

    Day after tomorrow, 22 September, Sunday

    Time Temperature Precipitation Wind Pressure Humidity
    00:00 +26°C° 0 mm 1 mps 723 mmHg 82%
    01:00 +26°C° 1.2 mm 1 mps 723 mmHg 85%
    02:00 +25°C° 1.2 mm 1 mps 723 mmHg 87%
    03:00 +25°C° 1.2 mm 1 mps 722 mmHg 90%
    04:00 +25°C° 2.1 mm 1 mps 722 mmHg 91%
    05:00 +24°C° 2.1 mm 1 mps 723 mmHg 93%
    06:00 +24°C° 2.1 mm 2 mps 723 mmHg 95%
    07:00 +25°C° 0 mm 2 mps 723 mmHg 92%
    08:00 +26°C° 0 mm 2 mps 723 mmHg 88%
    09:00 +28°C° 0 mm 3 mps 724 mmHg 84%
    10:00 +29°C° 0 mm 2 mps 723 mmHg 77%
    11:00 +31°C° 0 mm 2 mps 723 mmHg 69%
    12:00 +32°C° 0 mm 2 mps 723 mmHg 62%
    13:00 +33°C° 0 mm 1 mps 723 mmHg 59%
    14:00 +33°C° 0 mm 1 mps 722 mmHg 57%
    15:00 +34°C° 0 mm 1 mps 722 mmHg 54%
    16:00 +32°C° 0.2 mm 1 mps 722 mmHg 61%
    17:00 +31°C° 0.2 mm 1 mps 722 mmHg 68%
    18:00 +29°C° 0.2 mm 1 mps 721 mmHg 74%
    19:00 +29°C° 0.3 mm 1 mps 722 mmHg 76%
    20:00 +28°C° 0.3 mm 1 mps 722 mmHg 78%
    21:00 +27°C° 0.3 mm 1 mps 722 mmHg 80%
    22:00 +27°C° 0.3 mm 2 mps 722 mmHg 83%
    23:00 +26°C° 0.3 mm 2 mps 722 mmHg 85%

    23 September, Monday

    Time Temperature Precipitation Wind Pressure Humidity
    00:00 +26°C° 0.3 mm 2 mps 722 mmHg 87%
    01:00 +25°C° 0.1 mm 2 mps 722 mmHg 89%
    02:00 +25°C° 0.1 mm 2 mps 722 mmHg 90%
    03:00 +25°C° 0.1 mm 2 mps 721 mmHg 91%
    04:00 +25°C° 0 mm 2 mps 722 mmHg 92%
    05:00 +25°C° 0 mm 2 mps 722 mmHg 92%
    06:00 +25°C° 0 mm 2 mps 722 mmHg 93%
    07:00 +26°C° 0 mm 2 mps 723 mmHg 89%
    08:00 +27°C° 0 mm 2 mps 723 mmHg 85%
    09:00 +29°C° 0 mm 3 mps 723 mmHg 81%
    10:00 +30°C° 0 mm 2 mps 723 mmHg 74%
    11:00 +32°C° 0 mm 2 mps 723 mmHg 68%
    12:00 +34°C° 0 mm 2 mps 723 mmHg 61%
    13:00 +34°C° 0 mm 2 mps 722 mmHg 61%
    14:00 +34°C° 0 mm 2 mps 722 mmHg 61%
    15:00 +35°C° 0 mm 2 mps 721 mmHg 61%
    16:00 +32°C° 0.5 mm 1 mps 721 mmHg 67%
    17:00 +31°C° 0.5 mm 1 mps 721 mmHg 72%
    18:00 +30°C° 0.5 mm 1 mps 721 mmHg 78%
    19:00 +29°C° 0.8 mm 1 mps 722 mmHg 80%
    20:00 +28°C° 0.8 mm 1 mps 722 mmHg 82%
    21:00 +27°C° 0.8 mm 1 mps 723 mmHg 84%
    22:00 +27°C° 0.3 mm 1 mps 723 mmHg 85%
    23:00 +27°C° 0.3 mm 1 mps 723 mmHg 85%

    24 September, Tuesday

    Time Temperature Precipitation Wind Pressure Humidity
    00:00 +26°C° 0.3 mm 2 mps 723 mmHg 86%
    01:00 +26°C° 0 mm 2 mps 723 mmHg 88%
    02:00 +26°C° 0 mm 2 mps 723 mmHg 90%
    03:00 +25°C° 0 mm 1 mps 722 mmHg 91%
    04:00 +25°C° 0 mm 1 mps 722 mmHg 91%
    05:00 +25°C° 0 mm 1 mps 723 mmHg 91%
    06:00 +25°C° 0 mm 1 mps 723 mmHg 91%
    07:00 +26°C° 0 mm 2 mps 723 mmHg 88%
    08:00 +27°C° 0 mm 2 mps 724 mmHg 85%
    09:00 +28°C° 0 mm 3 mps 724 mmHg 82%
    10:00 +30°C° 0 mm 3 mps 724 mmHg 75%
    11:00 +31°C° 0 mm 2 mps 724 mmHg 68%
    12:00 +34°C° 0 mm 2 mps 723 mmHg 61%
    13:00 +32°C° 1 mm 2 mps 723 mmHg 62%
    14:00 +32°C° 1 mm 1 mps 722 mmHg 63%
    15:00 +32°C° 1 mm 1 mps 722 mmHg 65%
    16:00 +31°C° 1 mm 1 mps 722 mmHg 71%
    17:00 +29°C° 1 mm 1 mps 722 mmHg 77%
    18:00 +28°C° 1 mm 1 mps 722 mmHg 83%
    19:00 +28°C° 0 mm 1 mps 722 mmHg 83%
    20:00 +27°C° 0 mm 1 mps 722 mmHg 84%
    21:00 +27°C° 0 mm 1 mps 722 mmHg 84%
    22:00 +27°C° 0 mm 1 mps 723 mmHg 84%
    23:00 +26°C° 0 mm 1 mps 723 mmHg 84%

    25 September, Wednesday

    Time Temperature Precipitation Wind Pressure Humidity
    00:00 +26°C° 0 mm 1 mps 723 mmHg 84%
    01:00 +26°C° 0 mm 1 mps 723 mmHg 85%
    02:00 +26°C° 0 mm 1 mps 722 mmHg 86%
    03:00 +26°C° 0 mm 1 mps 722 mmHg 86%
    04:00 +25°C° 0 mm 2 mps 722 mmHg 88%
    05:00 +25°C° 0 mm 2 mps 722 mmHg 90%
    06:00 +25°C° 0 mm 2 mps 723 mmHg 92%
    07:00 +26°C° 0 mm 2 mps 723 mmHg 88%
    08:00 +27°C° 0 mm 2 mps 723 mmHg 84%
    09:00 +28°C° 0 mm 3 mps 723 mmHg 80%
    10:00 +30°C° 0 mm 3 mps 723 mmHg 74%
    11:00 +31°C° 0 mm 3 mps 723 mmHg 69%
    12:00 +34°C° 0 mm 3 mps 723 mmHg 63%
    13:00 +33°C° 1.6 mm 3 mps 722 mmHg 67%
    14:00 +31°C° 1.6 mm 2 mps 722 mmHg 70%
    15:00 +30°C° 1.6 mm 2 mps 721 mmHg 74%
    16:00 +29°C° 0.3 mm 2 mps 721 mmHg 78%
    17:00 +28°C° 0.3 mm 3 mps 721 mmHg 82%
    18:00 +27°C° 0.3 mm 3 mps 721 mmHg 85%
    19:00 +27°C° 0 mm 3 mps 722 mmHg 86%
    20:00 +26°C° 0 mm 2 mps 722 mmHg 87%
    21:00 +25°C° 0 mm 2 mps 722 mmHg 88%
    22:00 +25°C° 0 mm 1 mps 723 mmHg 87%
    23:00 +25°C° 0 mm 1 mps 723 mmHg 87%
    Show more